Regional Weather Roundup
Issued by NWS

Home | Current Version | Previous Version | Text Only | Print | Product List | Glossary Off
Versions: 1 2 3 4 5 6 7 8 9 10 11 12 13 14 15 16 17 18 19 20 21 22 23 24 25 26 27

000
ASUS43 KDMX 221107
RWRIA

WEATHER ROUNDUP FOR IOWA
NATIONAL WEATHER SERVICE DES MOINES IA
600 AM CDT TUE APR 22 2014

NOTE: "FAIR" INDICATES FEW OR NO CLOUDS BELOW 12,000 FEET WITH NO
SIGNIFICANT WEATHER AND/OR OBSTRUCTIONS TO VISIBILITY.

* - THESE STATIONS ARE NOT NWS STATIONS...THUS NOT UNDER NWS
QUALITY CONTROL.  THEY ALSO DO NOT REPORT WEATHER SUCH
AS PRECIPITATION OR FOG.

IAZ001>003-012>014-020>022-031>034-043>046-221200-
   NORTHWEST IOWA

CITY           SKY/WX    TMP DP  RH WIND       PRES   REMARKS
CARROLL *      CLEAR     34  28  80 NW7       30.13S WCI  28
CHEROKEE *     CLEAR     32  28  86 CALM      30.16R
DENISON *      CLEAR     36  32  87 CALM      30.14S
LE MARS *      CLEAR     30  27  86 CALM      30.17R
ORANGE CITY *  CLEAR     39  28  65 CALM      30.15F
SHELDON *      CLEAR     28  23  80 CALM      30.15R
SIOUX CITY     CLEAR     33  28  81 W3        30.16F
SPENCER        CLEAR     27  24  89 NW8       30.14F WCI  19
STORM LAKE *   CLEAR     37  28  70 N7        30.14S WCI  32
$$

IAZ055>058-069>071-079>083-090>094-221200-
   SOUTHWEST IOWA

CITY           SKY/WX    TMP DP  RH WIND       PRES   REMARKS
ATLANTIC *     CLEAR     37  32  81 NE5       30.14S WCI  34
AUDUBON *      CLEAR     34  27  75 CALM      30.15R
CLARINDA *     CLEAR     37  32  81 N6        30.16S WCI  33
COUNCIL BLFS * CLEAR     43  34  70 N7        30.14S
CRESTON *      CLEAR     41  30  65 N9        30.12S
HARLAN  *      CLEAR     36  32  87 N5        30.18S WCI  32
LAMONI         CLEAR     41  31  67 N7        30.11S
RED OAK *      CLEAR     37  32  81 N5        30.15S WCI  34
SHENANDOAH *   CLEAR     39  34  81 CALM      30.16S
$$

IAZ047>049-059>061-072>074-084-221200-
   CENTRAL IOWA

CITY           SKY/WX    TMP DP  RH WIND       PRES   REMARKS
AMES           CLEAR     40  31  70 N9        30.11F WCI  34
ANKENY *       CLEAR     41  32  70 N7        30.11F
CHARITON *     CLEAR     41  32  70 N9        30.11S
DES MOINES     CLEAR     45  31  58 N9        30.12S
GRINNELL*      CLEAR     36  32  87 NW7       30.10R WCI  30
KNOXVILLE *    CLEAR     43  32  65 N7        30.10S
MARSHALLTOWN   CLEAR     38  32  79 N9        30.09S WCI  31
NEWTON *       CLEAR     39  32  75 N10       30.11S WCI  32
PELLA *        CLEAR     39  32  75 N8        30.11S WCI  34
PERRY *          N/A     36  28  75 NW5       30.13S WCI  32
$$

IAZ004>006-015-016-023>025-035-036-221200-
   NORTH CENTRAL IOWA

CITY           SKY/WX    TMP DP  RH WIND       PRES   REMARKS
ALGONA *       CLEAR     37  30  75 NW9       30.13S WCI  31
CLARION *      CLEAR     36  32  87 NW6       30.12S WCI  31
ESTHERVILLE    CLEAR     32  29  88 NW9       30.14R WCI  24
FORT DODGE *   CLEAR     37  28  70 NW5       30.13S WCI  34
MASON CITY     CLEAR     34  31  88 W10       30.12S WCI  26
FOREST CITY *  CLEAR     32  32 100 CALM      30.11R
IOWA FALLS *     N/A     37  32  81 NW6       30.11S WCI  33
$$

IAZ007>011-017>019-026>030-037>042-050>054-066-221200-
   NORTHEAST IOWA

CITY           SKY/WX    TMP DP  RH WIND       PRES   REMARKS
CEDAR RAPIDS   CLEAR     42  30  62 N18       30.05R
CHARLES CITY * CLEAR     37  32  81 NW7       30.09S WCI  32
CLINTON *      CLEAR     37  32  81 N7        30.04R WCI  32
DECORAH *      CLEAR     37  30  75 N8        30.06R WCI  31
DUBUQUE        CLEAR     41  30  65 N16       30.02R
MONTICELLO *   CLEAR     41  32  70 N9        30.04R
OELWEIN *      CLEAR    N/A N/A N/A NW9       30.07S
WATERLOO       CLEAR     36  30  79 NW7       30.08S WCI  30
$$

IAZ064-065-067-068-078-221200-
   EAST CENTRAL IOWA

CITY           SKY/WX    TMP DP  RH WIND       PRES   REMARKS
DAVENPORT      CLEAR     42  35  76 NW9       30.03R
IOWA CITY      CLEAR     44  31  60 N12G22    30.06R
MT. PLEASANT * CLEAR     45  34  65 NW15      30.05S
MUSCATINE *    CLEAR     45  34  65 NW14      30.05R
QUAD CITIES    CLEAR     46  34  62 NW9       30.01R
$$

IAZ062-063-075>077-085>089-095>099-221200-
   SOUTHEAST IOWA

CITY           SKY/WX    TMP DP  RH WIND       PRES   REMARKS
BURLINGTON       N/A     45  37  73 N12       30.02R
FAIRFIELD *    CLEAR     43  32  65 N18       30.07R
FORT MADISON * CLEAR     45  39  81 NW12      30.04R
KEOKUK *       CLEAR     45  37  76 N10       30.04R
OSKALOOSA *      N/A     41  34  75 N8        30.10R
CENTERVILLE *  CLEAR     43  32  65 N15       30.10S
OTTUMWA        CLEAR     41  32  70 N16       30.08R
WASHINGTON *   CLEAR     41  34  75 NW12      30.06R
$$

ABBREVIATIONS USED IN REMARKS
   TC - TEMPERATURES IN CELSIUS
  WCI - WIND CHILL INDEX
   HX - HEAT INDEX
  VSB - VISIBILITY
$$




USA.gov is the U.S. government's official web portal to all federal, state and local government web resources and services.